SCP
1 1 0 0 0 0 0 0 0 0 0 0 0 0 0 0 0 0 0 0 0 0 0 0 1 0 0 1 1 1 1 2 2 2 2 2 1 1 1 1 1 1 1 1 1 2 2 2 2
1 1 0 0 0 0 0 0 0 0 0 0 0 0 0 0 0 0 0 0 0 0 0 0 1 1 1 1 1 1 1 2 2 2 2 1 1 1 1 1 1 1 1 1 1 1 1 1 1
0 0 0 0 0 0 0 0 0 0 0 0 0 0 0 0 0 0 0 1 0 0 0 0 1 1 1 1 1 1 2 2 2 2 2 1 1 1 1 1 1 1 1 1 1 1 1 1 1
0 0 0 0 0 0 0 0 0 0 0 0 0 0 0 0 0 0 1 1 1 0 0 0 1 1 1 1 1 1 1 2 2 2 1 1 1 1 1 1 1 1 1 1 1 1 1 0 0
0 0 0 0 0 0 0 0 0 0 0 0 0 0 0 0 0 1 1 1 1 1 0 0 1 1 1 1 1 1 1 1 2 1 1 1 1 1 1 1 1 1 1 1 1 1 1 0 0
0 0 0 0 0 0 0 0 0 0 0 0 0 0 0 0 0 1 1 1 1 1 1 1 1 1 1 1 1 1 1 1 1 1 1 1 1 1 1 1 1 1 1 1 1 1 1 1 1
0 0 0 0 0 0 0 0 0 0 0 0 0 0 0 0 1 1 1 1 1 1 1 1 1 1 1 1 1 1 1 1 1 1 1 1 1 1 1 1 1 1 1 1 0 1 1 1 1
0 0 0 0 0 0 0 0 0 0 0 0 0 0 0 1 1 1 1 1 1 1 1 1 1 0 0 0 0 0 0 0 1 1 1 1 1 1 0 0 1 1 0 0 0 1 1 1 1
0 0 0 0 0 0 0 0 0 0 1 1 1 0 0 1 1 1 1 1 1 1 1 1 0 0 0 0 0 0 0 0 0 0 0 0 0 0 0 0 0 0 0 0 1 1 1 1 1
0 0 0 0 0 0 0 0 0 0 1 1 1 1 1 1 1 1 1 1 1 1 1 0 0 0 0 0 0 0 0 0 0 0 0 0 0 0 0 0 0 0 0 0 0 0 0 0 0
0 0 0 0 0 0 0 0 0 0 1 1 1 1 1 1 1 1 1 1 1 0 0 0 0 0 0 0 0 0 0 0 0 0 0 0 0 0 0 0 0 0 0 0 0 0 0 0 0
0 0 0 0 0 0 0 0 0 0 0 1 1 1 1 1 1 1 0 0 0 0 0 0 0 0 0 0 0 0 0 0 0 0 0 0 0 0 0 0 0 0 0 0 0 0 0 0 0
1 1 0 0 0 0 0 0 0 0 1 1 1 1 1 1 1 0 1 0 0 0 0 0 0 0 0 0 0 0 0 0 0 0 0 0 0 0 0 0 0 0 0 0 0 0 0 0 0
1 1 0 0 0 0 0 1 1 1 1 1 1 1 1 0 0 0 1 0 0 0 0 0 0 0 0 0 0 0 0 0 0 0 0 0 0 0 0 0 0 0 0 0 0 0 0 0 0
1 0 0 0 0 0 0 0 1 1 1 1 1 1 0 0 0 0 0 0 0 0 0 0 0 0 0 0 0 0 0 0 0 0 0 0 0 0 0 0 0 0 0 0 0 0 0 0 0
0 0 0 0 0 0 0 0 1 1 1 1 1 1 0 0 0 0 0 0 0 0 0 0 0 0 0 0 0 0 0 0 0 0 0 0 0 0 0 0 0 0 0 0 0 0 0 0 0
0 0 0 0 0 0 0 0 1 1 1 1 1 1 0 0 0 0 0 0 0 0 0 0 0 0 0 0 0 0 0 0 0 0 0 0 0 0 0 0 0 0 0 0 0 0 0 0 0
0 0 0 0 0 0 0 0 1 1 1 1 1 1 0 0 0 0 1 1 0 0 0 0 0 0 0 0 0 0 0 0 0 0 0 0 0 0 0 0 0 0 0 0 0 0 0 0 0
0 0 0 0 0 0 0 0 1 1 1 1 1 1 0 0 0 1 1 1 1 1 0 0 0 0 0 0 0 0 0 0 0 0 0 0 0 0 0 0 0 0 0 0 0 0 0 0 0
0 0 0 0 0 0 0 0 0 1 1 1 1 1 1 1 1 1 1 1 1 1 1 0 0 0 0 0 0 0 0 0 0 0 0 0 0 0 0 0 0 0 0 0 0 0 0 0 0
0 0 0 0 0 0 0 0 0 0 0 1 1 1 1 1 1 1 1 1 1 1 1 1 0 0 0 0 0 0 0 0 0 0 0 0 0 0 0 0 0 0 0 0 0 0 0 0 0
0 0 0 0 0 0 0 0 0 0 0 1 1 1 1 1 1 1 1 1 1 1 1 1 0 0 0 0 0 0 0 0 0 0 0 0 0 0 0 0 0 0 0 0 0 0 0 0 0
0 0 0 0 0 0 0 0 0 0 0 0 1 2 2 2 1 1 1 1 1 1 1 1 0 0 0 0 0 0 0 0 0 0 0 0 0 0 0 0 0 0 0 0 0 0 0 0 0
0 0 0 0 0 0 0 0 0 0 0 0 1 2 2 2 1 1 1 1 1 1 1 1 1 0 0 0 0 0 0 0 0 0 0 0 0 0 0 0 0 0 0 0 0 0 0 0 0
0 0 0 0 0 0 0 0 0 0 0 0 0 1 2 2 1 1 1 1 1 1 1 1 1 1 1 1 0 0 0 0 0 0 0 0 0 0 0 0 0 0 0 0 0 0 0 0 0
0 0 0 0 0 0 0 0 0 0 0 0 0 1 2 2 1 1 1 1 1 1 1 1 1 1 1 1 0 0 0 0 0 0 0 0 0 0 0 0 0 0 0 0 0 0 0 0 0
0 0 0 0 0 0 0 0 0 0 0 0 0 1 1 2 1 1 1 1 1 1 1 1 2 1 1 1 1 0 0 0 0 0 0 0 0 0 0 0 0 0 0 0 0 0 0 0 0
0 0 0 0 0 0 0 0 0 0 0 0 0 0 1 1 1 1 1 1 1 1 1 2 2 1 1 1 1 0 0 0 0 0 0 0 0 0 0 0 0 0 0 0 0 0 0 0 0
0 0 0 0 0 0 0 0 0 0 0 0 0 1 1 1 1 2 2 2 2 1 1 1 1 1 1 1 1 1 1 0 0 0 0 0 0 0 0 0 0 0 0 0 0 0 0 0 0
0 0 0 0 0 0 0 0 0 0 0 0 1 1 1 1 2 2 3 2 2 2 1 1 1 1 1 1 1 1 1 1 0 0 0 0 0 0 0 0 0 0 0 0 0 0 0 0 0
Wind_Speed
1 1 2 3 6 6 3 1 2 3 4 4 7 9 7 5 4 3 2 3 4 3 2 4 7 8 9 10 11 11 11 11 12 12 13 12 12 12 12 12 12 12 11 11 11 11 12 11 11
1 1 3 5 6 4 1 0 3 3 5 6 7 7 7 5 4 4 2 4 5 4 3 4 7 9 10 10 11 11 12 13 14 13 13 13 13 12 12 12 12 12 12 11 11 11 11 11 10
1 1 4 5 4 3 3 1 3 4 5 5 5 5 5 3 2 3 3 6 5 4 3 4 8 9 10 10 11 11 12 12 13 13 13 13 13 13 13 12 12 12 12 12 11 11 11 10 10
3 4 5 6 5 2 4 2 3 5 5 5 6 5 3 2 3 4 6 7 6 4 3 4 8 9 10 11 11 11 12 12 12 12 12 13 13 13 13 13 12 12 12 12 12 11 11 10 10
4 5 5 4 3 1 2 2 4 6 4 4 7 5 3 2 6 8 7 7 6 4 3 4 9 9 10 10 11 11 12 12 12 12 12 12 12 12 12 12 12 12 12 12 11 11 11 10 10
4 4 5 3 2 2 1 3 5 7 6 6 6 5 2 2 6 7 7 6 6 5 4 4 8 9 9 10 10 11 11 11 11 11 11 11 11 11 11 12 12 11 11 11 10 10 11 11 11
4 4 4 4 4 2 2 3 6 6 5 4 5 5 2 1 4 6 6 6 5 5 5 3 3 5 8 9 10 10 10 10 10 10 10 10 10 10 11 11 11 10 10 10 10 10 10 10 11
5 5 3 3 4 2 3 4 5 6 4 4 5 7 4 4 4 6 6 5 5 4 4 4 3 3 3 4 7 8 9 9 9 9 9 9 9 9 9 9 9 10 10 10 10 10 10 10 11
4 5 2 3 4 3 3 5 3 4 6 4 4 4 6 7 6 7 5 4 4 4 3 4 3 2 2 2 4 5 6 6 7 6 8 7 4 4 4 6 8 9 9 9 9 9 10 10 10
5 4 3 3 5 5 5 6 4 5 7 5 6 6 7 7 7 7 6 5 4 4 3 3 3 2 2 2 2 2 3 3 3 3 3 3 3 3 4 6 8 8 8 8 9 9 9 7 4
4 4 3 3 4 6 5 4 4 7 4 5 8 8 7 7 6 6 5 4 4 4 4 3 3 2 2 2 2 1 2 2 2 3 3 3 3 3 3 3 4 4 6 4 6 6 4 4 3
3 3 4 3 4 5 5 4 5 5 5 6 10 10 8 7 5 5 5 4 4 4 4 3 3 3 2 2 2 1 1 2 1 2 3 3 2 2 2 2 2 2 2 3 3 3 4 5 5
4 3 3 3 5 5 7 5 6 4 6 8 9 8 8 7 5 4 4 4 4 4 3 3 4 3 2 2 1 2 1 2 1 2 2 3 3 2 2 2 2 3 3 3 3 4 5 5 5
5 4 4 4 4 4 7 4 5 4 7 10 10 8 7 7 6 5 5 4 4 4 3 3 4 3 3 2 2 1 1 1 2 2 2 3 3 3 3 3 3 3 3 3 3 4 4 4 4
5 6 3 1 3 3 7 3 3 6 9 9 8 7 6 5 6 6 6 5 4 4 4 4 4 3 3 3 2 2 1 2 2 2 2 3 3 3 3 3 3 2 3 4 4 4 4 4 5
4 4 2 3 3 3 6 3 3 6 10 8 7 6 6 5 5 5 5 5 4 4 4 4 4 4 3 3 2 2 1 2 2 2 2 3 3 4 3 3 2 2 3 3 3 3 4 4 4
2 3 3 2 3 4 5 4 4 6 9 8 7 6 6 5 4 4 5 5 5 5 5 4 4 4 3 3 2 2 2 2 2 2 2 2 3 4 4 3 2 3 3 3 3 3 3 3 3
4 3 3 4 3 4 4 4 5 6 8 8 7 6 6 6 5 5 6 6 5 5 5 5 4 3 3 3 3 3 3 2 2 2 2 3 2 3 4 3 3 3 3 3 3 4 3 3 2
5 5 3 4 4 4 5 5 6 7 6 7 7 7 7 7 6 5 6 5 5 5 5 4 4 2 3 2 2 2 1 1 2 1 2 3 3 3 3 3 3 3 3 2 3 3 4 2 2
4 4 3 3 3 5 4 4 5 6 8 9 10 9 8 6 5 5 5 5 4 4 4 4 4 3 3 2 2 2 1 1 1 1 2 2 2 2 3 3 3 3 3 3 2 3 2 1 1
3 5 5 4 1 1 3 1 3 3 4 4 6 7 7 8 8 6 5 5 5 5 4 4 4 4 3 3 3 3 3 3 3 2 2 1 1 2 2 2 3 2 2 2 2 2 3 1 1
4 5 5 4 3 2 3 2 5 4 3 5 6 6 7 7 7 7 6 5 6 5 5 5 4 4 3 4 4 3 2 1 0 0 0 1 1 2 2 2 2 2 2 2 2 2 2 3 1
5 3 2 3 3 0 0 3 5 2 4 5 7 8 8 7 8 8 7 7 6 5 5 4 4 4 3 4 4 4 2 1 0 1 1 2 2 1 1 2 2 2 2 2 2 2 2 2 2
3 3 3 3 3 2 4 4 5 4 7 6 7 7 7 7 7 7 6 5 4 4 4 4 4 3 3 3 4 4 4 2 2 2 1 1 1 1 1 1 1 1 1 2 2 2 2 2 2
4 5 3 3 2 5 2 3 6 5 6 8 8 8 7 7 8 7 6 5 5 4 4 4 5 3 3 3 3 3 3 3 3 2 1 0 1 1 1 0 1 1 1 2 2 2 2 2 2
4 8 7 4 4 3 1 3 5 4 4 5 6 7 7 7 7 7 8 7 6 6 5 5 5 4 4 4 3 3 3 2 2 2 2 1 1 1 1 1 1 1 1 1 2 2 2 2 2
3 3 7 5 2 1 3 2 3 1 2 3 4 5 6 7 7 7 6 6 6 6 6 6 5 4 4 3 3 2 3 3 2 2 2 1 1 1 0 1 1 1 1 1 1 2 2 2 2
4 5 5 4 4 3 3 4 5 5 5 4 4 5 6 6 6 6 5 5 5 5 4 5 5 5 4 3 3 2 2 3 3 2 2 1 1 1 1 0 0 0 1 1 1 1 1 2 2
1 2 3 4 5 5 3 6 5 8 7 6 5 6 7 7 7 6 5 5 4 3 3 3 3 3 2 3 2 2 2 2 2 2 2 2 1 1 1 1 0 0 1 1 1 1 2 3 2
4 5 5 4 3 4 4 6 3 4 5 5 4 4 5 6 6 6 5 4 3 3 3 3 3 3 2 3 2 2 2 2 2 2 2 2 1 1 1 1 1 0 0 0 1 1 2 3 3
Wind_Direction
316 29 77 59 56 56 66 43 107 70 62 62 72 79 82 67 85 127 230 130 121 107 83 81 76 74 72 70 68 67 67 65 75 86 86 86 85 86 86 90 92 94 93 93 90 88 86 83 81
20 60 61 58 77 80 41 72 92 96 130 126 82 77 76 67 80 109 117 137 125 113 92 92 84 81 78 74 71 69 69 70 76 84 87 87 86 86 85 87 90 91 91 91 91 89 87 83 79
335 86 77 69 88 135 153 184 119 91 94 98 82 55 72 98 102 124 147 140 118 106 91 103 92 86 82 79 76 73 74 75 80 84 86 87 86 86 85 85 88 89 90 90 91 89 87 84 78
64 47 58 75 88 144 153 176 124 98 72 69 96 67 56 85 122 129 134 126 114 105 99 108 99 91 86 83 80 79 78 79 83 86 86 84 85 85 85 86 88 89 89 89 90 88 86 83 80
71 73 68 75 92 117 139 139 112 103 92 82 94 93 67 26 101 118 125 119 118 112 110 114 103 97 91 87 84 83 81 80 82 85 86 85 87 86 85 87 88 90 90 88 86 86 84 83 82
64 72 89 108 114 101 115 122 99 95 108 108 99 101 90 80 103 123 125 125 126 123 115 109 106 102 97 92 88 85 81 80 82 83 85 86 89 89 86 86 86 88 88 88 87 84 81 80 81
104 94 117 136 124 105 134 122 115 120 119 124 122 105 109 98 130 131 123 122 118 115 110 98 96 98 99 97 94 90 85 82 81 83 83 84 86 89 90 88 86 88 89 88 85 82 83 81 79
122 100 96 131 128 136 135 104 118 119 116 115 111 125 159 190 143 113 106 106 109 109 109 108 87 81 82 92 98 94 90 85 81 81 82 81 82 86 91 90 89 86 85 83 80 77 78 78 76
87 81 118 165 152 157 124 103 86 81 89 69 74 123 154 150 120 105 98 88 98 104 108 114 109 102 96 92 93 88 85 79 76 75 79 72 55 57 74 88 93 91 86 83 80 78 77 74 72
87 117 179 179 158 141 118 119 120 85 76 69 69 82 115 127 121 122 123 121 116 116 120 113 121 125 109 102 78 61 66 58 54 57 62 56 56 60 70 76 83 81 78 76 74 75 73 69 63
116 147 150 124 127 120 116 109 98 110 103 144 141 139 137 130 124 126 129 134 137 138 131 131 132 120 102 90 85 63 63 60 54 60 63 67 61 59 57 54 57 58 65 61 60 60 56 63 74
110 136 137 133 119 109 112 104 88 111 160 163 149 147 140 133 136 137 138 136 135 129 130 136 130 111 96 92 92 84 83 73 65 61 75 79 73 64 64 61 56 56 62 66 60 64 62 65 72
113 130 112 125 112 111 102 101 106 118 139 133 128 124 131 139 139 136 134 127 120 119 126 133 125 113 103 99 103 91 83 87 82 65 76 91 89 79 73 69 69 70 72 77 76 73 71 71 71
145 120 103 106 104 115 112 109 105 146 137 131 130 135 143 143 140 121 116 113 115 117 123 112 115 122 114 103 98 96 94 90 77 69 75 93 96 94 92 84 81 74 77 77 81 78 76 72 72
118 101 68 121 127 143 107 69 142 164 143 140 144 146 145 142 134 136 147 140 133 127 115 108 109 100 104 105 106 99 93 86 79 77 87 89 92 98 95 91 87 82 84 81 78 72 70 72 71
101 100 139 240 174 160 121 173 206 164 146 153 158 155 152 152 150 153 147 137 133 124 116 116 108 99 96 95 100 93 81 78 74 74 80 88 94 96 89 87 86 91 87 83 86 78 74 65 64
83 144 176 228 197 155 140 186 205 170 155 164 168 166 162 157 151 156 150 145 141 130 127 117 108 103 98 97 88 79 73 68 63 68 76 83 92 96 96 94 87 90 84 79 89 79 87 84 71
185 169 174 202 212 150 157 197 194 182 166 168 171 171 169 167 173 166 155 150 142 133 129 126 117 112 106 91 72 57 51 48 53 65 75 80 86 96 99 96 88 87 85 77 84 87 76 86 85
161 153 180 222 208 156 187 198 202 191 171 171 174 176 180 181 178 161 154 149 139 133 128 130 119 116 107 87 80 78 57 39 49 60 76 82 87 96 104 99 97 94 99 108 108 100 86 74 85
158 159 199 240 218 172 189 209 211 197 190 185 180 182 185 178 167 165 150 142 143 145 139 135 132 126 117 118 125 126 128 91 78 54 47 62 82 94 111 114 117 109 104 95 100 111 104 78 67
186 183 198 204 209 145 128 277 246 227 196 183 176 174 175 171 169 165 153 147 148 153 154 144 140 133 123 117 99 76 59 42 37 34 21 28 73 84 101 116 124 125 122 128 130 131 129 136 7
208 206 194 186 146 242 165 211 261 221 197 191 187 174 179 176 167 166 159 159 166 173 165 149 144 136 128 121 115 117 114 115 196 259 351 356 30 75 97 110 116 130 131 136 147 138 141 134 132
203 195 195 185 166 231 170 158 268 208 209 212 198 188 185 180 170 170 170 170 168 165 161 155 145 138 137 131 133 131 118 130 84 42 45 21 2 25 92 114 113 123 138 148 141 132 132 134 142
169 81 38 48 81 253 227 169 257 218 205 200 199 192 182 179 174 174 169 157 154 147 142 145 143 146 146 140 138 139 137 125 95 60 38 6 348 343 6 110 111 133 149 160 156 148 139 135 125
101 94 43 359 358 249 241 165 240 230 203 192 187 186 181 173 169 166 160 159 161 155 155 150 147 154 157 151 150 156 154 148 147 147 145 77 352 329 295 198 143 159 177 164 149 136 138 137 128
184 145 158 191 217 264 319 217 243 232 199 180 172 168 165 164 166 168 172 172 170 168 165 157 153 157 166 166 172 171 165 160 166 171 169 178 208 250 278 265 200 195 171 151 140 128 147 132 136
158 179 171 152 188 206 256 265 287 244 126 137 141 141 155 165 167 169 171 175 175 174 174 170 167 164 171 176 173 172 175 173 179 184 177 184 211 232 286 329 259 251 179 157 140 139 150 140 152
167 158 112 135 170 229 254 227 221 213 192 171 163 166 169 165 167 170 172 172 175 178 176 168 167 174 177 178 179 182 192 189 185 178 187 200 217 205 154 56 51 209 190 173 152 156 157 148 171
180 149 129 141 163 168 225 257 224 194 188 182 188 185 175 169 170 171 173 174 167 153 148 148 160 161 171 180 179 172 188 185 179 184 199 202 204 189 176 190 154 150 206 199 174 192 175 172 178
183 182 151 157 217 171 180 260 300 175 168 168 177 179 172 168 167 167 166 159 153 156 159 159 164 165 179 181 171 170 179 175 177 188 196 189 182 192 190 170 136 163 239 192 176 217 202 189 189